Home > Weather > Hamburg > Past weeks

Flag for Germany Weather for the Past 2 Weeks in Hamburg, Hamburg, Germany

Now
63 °F

Passing clouds.


Feels Like: 63 °F
Forecast: 48 / 69 °F
Wind: 12 mph from Southeast

Location: Hamburg-Fuhlsbuettel

Current Time: May 5, 2016 at 2:59:23 PM

Latest Report: May 5, 2016 at 2:20 PM


Visibility: N/A

Pressure: 30.33 "Hg

Humidity: 34%

Dew Point: 34 °F

Location of HamburgLocation

Historic Weather in Hamburg — Graph

°F

Hamburg Temperature Yesterday

Maximum temperature yesterday: 59 °F (at 4:50 PM)
Minimum temperature yesterday: 37 °F (at 1:50 AM)
Average temperature yesterday: 48 °F

High & Low Weather Summary for the Past Weeks

 TemperatureHumidityPressure
High68 °F (May 2, 5:50 PM)100% (Apr 21, 4:20 AM)30.42 "Hg (Apr 21, 4:20 AM)
Low32 °F (Apr 21, 4:20 AM)30% (May 2, 5:50 PM)29.39 "Hg (Apr 26, 3:20 AM)
Average44 °F77%30.00 "Hg
* Reported Apr 20 1:20 PM — May 5 1:50 PM, Hamburg, Weather by CustomWeather, © 2016

Note: Actual official high and low records may vary slightly from our data, if they occured in-between our weather recording intervals... More about our weather records

Advertising

Hamburg Weather History for the Previous 24 Hours

Scroll right to see more
 ConditionsComfort  
Time TempWeatherWind HumidityBarometerVisibility
1:50 PM
Thu, May 5
61 °FSunny.7 mph34%30.33 "Hg10 mi
1:20 PM61 °FPassing clouds.12 mph34%30.36 "HgN/A
12:50 PM59 °FPassing clouds.8 mph31%30.36 "HgN/A
12:20 PM59 °FPassing clouds.6 mph42%30.36 "HgN/A
11:50 AM59 °FPassing clouds.9 mph39%30.39 "HgN/A
11:20 AM57 °FPassing clouds.8 mph41%30.39 "HgN/A
10:50 AM55 °FPassing clouds.8 mph47%30.39 "HgN/A
10:20 AM55 °FPassing clouds.7 mph44%30.39 "HgN/A
9:50 AM54 °FPassing clouds.7 mph54%30.39 "HgN/A
9:20 AM54 °FPassing clouds.9 mph51%30.39 "HgN/A
8:50 AM52 °FPassing clouds.7 mph58%30.39 "HgN/A
8:20 AM50 °FPassing clouds.5 mph58%30.39 "HgN/A
7:50 AM48 °FPassing clouds.3 mph62%30.39 "HgN/A
7:20 AM45 °FSunny.2 mph71%30.39 "Hg10 mi
6:50 AM39 °FSunny.3 mph81%30.39 "Hg10 mi
6:20 AM37 °FClear.3 mph87%30.39 "Hg10 mi
5:50 AM37 °FClear.5 mph87%30.39 "Hg10 mi
5:20 AM37 °FClear.2 mph93%30.39 "Hg10 mi
4:50 AM37 °FClear.2 mph93%30.39 "Hg10 mi
4:20 AM39 °FClear.3 mph81%30.39 "Hg10 mi
3:50 AM39 °FClear.3 mph87%30.39 "Hg10 mi
3:20 AM41 °FClear.3 mph81%30.39 "Hg10 mi
2:50 AM41 °FClear.3 mph81%30.39 "Hg10 mi
2:20 AM41 °FClear.3 mph81%30.39 "Hg10 mi
1:50 AM41 °FClear.3 mph87%30.39 "Hg10 mi
1:20 AM41 °FClear.1 mph87%30.39 "Hg10 mi
12:50 AM43 °FClear.1 mph81%30.39 "Hg10 mi
12:20 AM43 °FClear.2 mph76%30.39 "Hg10 mi
11:50 PM
Wed, May 4
45 °FClear.1 mph76%30.39 "Hg10 mi
11:20 PM46 °FClear.5 mph76%30.39 "Hg10 mi
10:50 PM45 °FClear.2 mph81%30.39 "Hg10 mi
10:20 PM46 °FClear.2 mph71%30.39 "Hg10 mi
9:50 PM50 °FSunny.3 mph62%30.39 "Hg10 mi
9:20 PM52 °FSunny.6 mph58%30.39 "Hg10 mi
8:50 PM54 °FSunny.9 mph54%30.36 "Hg10 mi
8:20 PM55 °FSunny.9 mph55%30.36 "Hg10 mi
7:50 PM57 °FSunny.5 mph48%30.36 "Hg10 mi
7:20 PM59 °FPassing clouds.7 mph39%30.36 "HgN/A
6:50 PM57 °FPassing clouds.8 mph41%30.36 "HgN/A
6:20 PM59 °FPassing clouds.5 mph42%30.36 "HgN/A
5:50 PM57 °FPassing clouds.7 mph41%30.36 "HgN/A
5:20 PM59 °FPassing clouds.6 mph42%30.36 "HgN/A
4:50 PM59 °FPassing clouds.9 mph42%30.36 "HgN/A
4:20 PM57 °FPassing clouds.3 mph41%30.36 "HgN/A
3:50 PM57 °FPassing clouds.7 mph41%30.39 "HgN/A
3:20 PM57 °FSunny.5 mph41%30.39 "Hg10 mi
2:50 PM57 °FPassing clouds.5 mph48%30.39 "HgN/A
2:20 PM57 °FPassing clouds.3 mph44%30.39 "HgN/A
Weather by CustomWeather, © 2016

See weather overviewHow to use our weather pages